Simultaneous Nadir Overpasses (SNOs) Predictions

Prediction of SNOs between GOES-16 and NOAA-21 Satellite Orbit:

Table of predicted SNOs for the next 14.0 days since TLE Epoch: 8/23/2024
Index Date Time (GOES-16) GOES-16 Lat,Lon NOAA-21 Lat,Lon Distance(km) Time Diff (sec)
1 08/23/2024 18:17:10 -0.06, -75.20 0.49, -72.70 285.49 80
2 08/25/2024 06:38:57 0.06, -75.21 0.67, -77.96 313.98 80
3 08/26/2024 06:17:31 0.06, -75.21 -0.32, -73.42 203.30 80
4 08/27/2024 18:39:27 -0.05, -75.22 -0.85, -78.72 399.31 80
5 08/28/2024 18:23:22 -0.05, -75.23 0.21, -74.19 118.31 80
6 08/30/2024 06:45:09 0.04, -75.24 1.00, -79.45 480.28 80
7 08/31/2024 06:26:24 0.03, -75.25 -0.07, -74.92 37.87 80
8 09/02/2024 18:26:53 -0.02, -75.29 -0.13, -75.67 44.56 80
9 09/03/2024 18:10:47 -0.02, -75.31 0.89, -71.14 474.65 80
10 09/05/2024 06:32:35 0.02, -75.34 0.25, -76.40 121.64 80
11 09/06/2024 06:11:09 0.02, -75.36 -0.77, -71.87 397.83 80
